Terug naar catalogus

KUIPER-00448

ActiefCommunicatieLEO
NORAD 68871·PAYLOAD·🇺🇸 United States

Gelanceerd Apr 28, 2026 vanaf Cape Canaveral Space Force Station

Loading…

Volgende Passages (komende 24 uur)

TLE

VersSource: CelesTrak SupGP

Epoch: Sep 14, 2026, 22:10 UTC

1 68871C 26095H   26257.92363426 -.00002974  00000+0 -42387-3 0  2576
2 68871  51.9023 206.1655 0003338  39.2964  71.6916 14.76330227    13

Volg KUIPER-00448 in realtime met AllMySat

Download on the App Store